Theta_e
310 311 312 312 311 311 311 311 311 311 311 311 311 311 312 311 312 313 312 313 313 315 315 317 317 318 319 320 321 321 321 322 322 323 322 322 323 323 322 322 321 322 321 321 321 321 320 320 321 322 322 321 322 321 321 321 321 320 320 319 318 318 317 315 312 312 315 317 317 317 317 317 317 317 317 316 315 315 311 315 316 315 315 315 315
310 311 311 312 311 311 311 310 311 310 310 310 310 310 310 311 310 310 310 312 312 313 314 315 316 317 317 318 319 320 320 321 321 321 321 321 321 322 322 321 321 321 321 320 320 321 321 320 320 321 322 321 321 321 321 320 320 319 319 318 318 317 318 315 314 312 311 314 314 316 316 317 315 317 316 316 317 316 314 314 315 315 315 314 313
311 311 310 310 310 309 309 308 308 308 308 308 307 308 309 308 309 309 309 309 310 312 312 313 314 315 316 317 318 318 319 319 320 321 321 321 320 321 321 321 321 320 319 319 319 320 319 319 319 320 321 320 320 320 321 320 320 319 318 318 317 317 317 317 315 312 311 312 315 314 314 315 315 315 316 317 317 317 316 315 315 315 314 314 314
309 309 309 308 307 306 306 306 306 306 305 306 305 305 307 307 306 306 307 308 309 309 310 311 312 313 314 315 315 316 317 318 319 319 321 320 320 320 320 320 320 320 320 319 319 318 318 318 318 319 319 319 319 319 320 319 319 318 317 317 317 317 317 316 316 314 313 311 313 312 314 313 314 315 317 317 316 316 316 316 315 315 315 314 315
307 307 306 305 303 303 303 303 303 303 303 304 303 304 303 303 304 305 305 306 307 307 308 307 309 310 312 313 314 315 316 317 318 318 319 319 319 320 320 320 320 320 320 319 313 318 318 317 318 318 318 318 318 317 318 317 317 317 316 316 315 315 315 315 314 314 313 311 312 312 311 312 313 313 314 313 313 313 313 313 314 314 315 316 316
304 304 302 301 301 299 300 299 300 301 302 301 301 301 301 301 301 302 303 304 303 304 305 305 307 308 308 310 310 312 313 313 314 315 316 317 317 318 318 318 319 320 320 320 320 319 319 319 318 318 318 317 317 317 317 315 316 316 315 315 314 314 313 313 313 312 312 312 312 312 307 308 308 308 310 312 312 311 311 311 310 311 312 312 313
301 300 298 297 297 296 297 298 299 298 298 298 297 298 298 297 297 298 297 298 299 300 299 301 303 304 307 307 309 310 312 311 313 313 314 315 316 316 316 316 316 318 319 320 320 320 320 319 319 319 318 318 317 317 315 314 315 314 314 314 314 313 312 312 311 311 311 311 311 311 311 310 309 309 307 311 311 310 309 309 309 310 306 308 310
298 297 297 295 295 296 296 294 295 296 296 297 297 296 295 295 295 295 295 296 296 296 297 300 300 299 303 304 307 308 307 307 308 310 311 312 313 314 314 315 315 317 318 318 318 318 318 318 318 319 319 319 318 318 316 314 314 314 314 314 314 313 312 312 311 310 310 309 309 309 308 309 307 306 302 301 305 306 306 308 308 308 308 308 307
296 296 294 295 295 294 294 294 296 296 295 296 295 295 295 294 295 295 294 294 297 294 297 298 295 296 297 299 300 303 307 309 310 304 305 308 309 310 312 312 311 313 315 315 316 317 318 319 319 318 317 307 305 307 309 309 317 314 313 313 313 312 312 311 310 310 309 308 309 309 308 308 308 305 302 303 304 307 308 306 307 308 307 308 307
296 295 295 294 293 293 294 295 295 295 295 294 293 292 292 293 293 293 293 292 291 291 291 293 294 295 295 296 297 301 304 308 294 295 296 302 305 308 309 308 308 308 307 308 310 311 313 316 318 305 302 301 301 301 301 300 301 310 315 313 311 311 310 309 309 308 308 307 307 308 307 307 308 306 306 306 306 306 304 303 304 307 303 305 305
294 294 295 293 293 293 293 293 292 292 291 291 291 291 292 291 291 291 291 291 292 292 293 296 297 298 297 297 297 300 302 303 295 298 298 298 300 304 305 307 309 307 307 308 308 306 308 310 311 307 303 299 301 297 298 298 298 298 298 299 302 312 311 310 309 308 307 307 308 308 307 307 308 305 305 306 304 305 305 306 305 305 304 303 303
296 295 294 293 293 295 293 292 291 291 290 290 290 289 289 289 289 288 288 290 293 295 295 296 297 297 299 299 300 300 301 290 293 293 294 295 295 299 303 304 306 307 306 306 306 306 306 306 307 311 310 309 308 308 302 297 297 297 297 297 297 297 299 306 310 309 308 307 307 307 307 306 307 305 304 302 305 304 304 304 304 304 304 303 302
295 294 293 294 293 294 291 291 291 289 289 289 289 289 289 289 288 288 288 290 293 294 295 295 295 296 296 297 297 297 294 290 292 292 292 293 293 293 298 302 304 303 302 303 304 305 305 305 306 306 311 300 302 308 309 309 301 298 297 296 295 296 298 298 298 302 308 307 307 306 307 304 305 305 302 303 301 304 303 303 303 303 304 304 304
293 293 292 293 292 291 290 289 289 288 288 289 289 289 289 288 289 289 290 292 293 294 295 295 295 295 296 296 296 293 289 290 291 291 292 292 293 293 296 299 301 301 301 302 303 303 303 303 304 305 304 303 305 306 307 307 308 308 306 304 304 300 296 295 295 294 295 300 302 303 305 304 305 304 299 301 301 301 301 302 302 302 302 302 302
292 292 292 291 290 289 289 288 288 287 287 287 288 288 287 288 288 287 290 292 292 292 293 293 294 293 294 294 293 290 289 290 291 291 292 292 293 293 297 300 299 299 300 301 301 300 298 298 297 298 299 300 297 293 297 300 300 302 303 304 304 303 303 303 301 300 299 299 299 300 301 302 302 302 303 304 304 304 303 302 300 298 297 294 294
290 289 289 289 289 288 288 287 286 286 286 286 287 287 287 285 287 289 289 290 292 291 293 293 292 292 291 291 292 290 289 290 290 291 291 291 291 293 296 296 296 296 297 296 295 294 293 293 294 295 294 293 290 292 292 293 297 298 299 300 300 298 295 293 292 293 295 296 296 296 296 295 295 297 297 298 300 299 295 294 293 293 295 295 296
288 288 289 288 288 288 287 287 286 285 286 286 285 286 285 285 287 289 289 289 290 291 292 291 290 290 289 289 290 289 288 288 290 290 290 291 290 289 291 293 295 295 293 293 293 292 291 290 292 293 292 291 291 292 293 291 295 295 295 295 294 293 293 294 292 293 293 293 293 294 294 295 296 295 296 295 293 294 292 293 293 292 294 294 294
288 288 288 287 286 286 286 285 285 285 284 286 285 283 285 287 287 288 287 288 288 290 290 290 289 288 288 288 288 288 286 286 289 289 290 290 289 288 289 290 292 292 292 292 291 291 289 286 288 290 290 290 291 292 292 291 292 293 293 293 293 292 292 291 293 292 291 291 291 291 292 293 293 294 295 295 295 293 292 291 291 291 292 291 292
288 288 287 285 285 285 284 284 284 284 285 284 284 284 285 286 286 287 287 288 289 289 289 289 287 285 284 285 286 287 284 284 288 289 289 290 289 289 290 289 289 289 289 289 289 289 290 288 287 288 288 289 291 291 291 290 290 290 291 291 291 291 289 289 289 289 289 290 290 291 291 290 291 292 292 292 292 291 292 292 291 291 290 290 290
287 286 285 285 284 284 283 283 283 283 283 283 284 286 286 286 286 286 287 288 287 287 287 286 284 284 283 283 284 282 282 282 285 289 289 289 290 289 288 287 287 288 288 288 289 290 290 289 288 288 289 289 290 290 290 290 289 289 289 288 287 287 288 287 287 288 288 288 288 289 289 290 289 289 289 289 290 290 290 291 291 290 289 289 288
286 286 285 285 284 284 283 283 284 283 283 284 284 285 286 286 286 286 286 286 283 283 284 284 284 284 283 282 282 282 283 282 283 288 289 289 289 287 286 286 287 287 288 288 289 289 289 288 287 287 288 289 289 290 290 290 289 288 288 287 287 287 288 286 287 286 287 286 286 286 286 286 287 287 287 288 288 288 288 288 288 289 288 288 288
286 285 285 285 284 284 284 283 283 284 283 284 283 283 284 285 284 283 281 283 284 284 282 284 284 284 283 282 282 282 282 282 281 285 287 288 289 288 284 283 286 286 287 287 288 288 287 286 286 287 288 289 289 289 290 290 289 287 288 289 289 289 286 286 286 286 286 286 286 285 286 286 286 286 285 285 286 286 287 287 288 288 288 289 288
285 285 285 285 284 284 283 283 284 284 283 283 283 283 283 282 281 283 284 283 284 283 283 283 283 283 283 284 282 282 282 283 284 282 285 287 288 289 289 286 288 283 285 284 285 286 286 286 286 286 288 289 290 290 290 289 288 288 290 289 289 289 287 286 286 286 286 286 285 285 286 286 285 285 284 284 285 284 285 285 285 286 287 287 287
285 285 284 283 283 283 283 282 282 281 283 283 283 283 283 283 284 285 284 284 283 283 282 283 282 282 282 282 283 281 281 280 283 284 283 285 287 288 288 289 289 283 282 283 283 283 284 285 285 287 288 289 290 290 289 288 287 289 289 289 288 287 286 286 286 286 285 285 285 285 284 284 284 284 285 285 285 284 284 284 285 286 286 286 287
284 283 283 283 283 282 282 282 282 281 282 283 284 283 282 282 284 281 283 283 282 283 282 283 282 283 281 282 281 280 281 280 280 282 283 283 285 287 287 287 288 288 281 282 283 284 285 287 287 287 288 288 288 288 287 287 288 287 288 287 286 286 286 286 286 285 285 284 284 285 285 285 285 285 285 284 284 283 282 284 283 284 284 285 286
283 282 282 282 282 282 282 281 281 281 282 282 282 281 283 283 283 283 283 282 282 283 282 281 281 282 280 280 280 280 280 280 279 280 281 281 282 284 286 285 285 285 285 283 286 287 287 287 287 287 286 285 283 283 283 284 286 286 286 286 285 285 284 284 284 284 284 284 284 284 285 285 285 286 286 286 285 285 285 285 285 285 285 284 284
283 282 282 282 282 282 282 282 282 282 282 282 282 282 282 282 282 282 281 281 281 281 281 281 280 280 278 279 279 279 279 278 278 277 278 279 279 281 282 283 284 284 282 281 283 282 283 284 284 286 286 286 285 285 285 285 284 283 283 284 284 284 284 284 284 284 284 284 284 284 285 285 286 285 285 285 285 286 286 285 285 285 285 285 284
282 282 282 282 282 282 283 284 283 282 281 281 281 281 280 281 281 279 277 278 280 279 279 279 279 279 277 276 277 277 277 276 277 277 277 278 279 281 282 281 281 280 281 281 280 280 281 284 284 282 283 283 284 284 283 283 283 283 283 283 284 284 284 284 284 284 284 284 284 284 284 284 284 284 285 285 285 285 285 285 285 285 285 285 284
282 281 281 282 282 282 282 282 281 281 281 280 280 280 279 280 281 281 280 278 277 278 279 279 279 278 277 275 275 274 275 275 276 281 280 282 281 281 280 279 280 279 282 286 282 281 281 281 282 282 282 282 283 283 283 283 283 284 283 283 283 283 283 282 280 281 282 282 282 283 283 283 283 284 283 283 284 284 285 284 285 284 285 285 284
280 280 281 281 281 281 281 281 280 281 281 280 280 280 282 283 282 280 279 282 283 283 282 276 276 277 278 277 275 274 273 275 282 282 282 282 283 284 284 284 285 282 285 287 285 281 280 279 280 280 281 281 280 280 280 281 281 281 282 282 283 282 281 280 279 280 282 282 282 282 282 282 281 282 282 283 283 283 284 284 283 284 283 283 283
280 280 281 280 281 281 280 280 280 280 280 280 279 279 278 280 283 283 282 281 282 282 282 283 282 282 279 275 277 282 281 282 281 281 281 281 282 283 283 284 284 285 286 284 282 281 280 278 278 278 279 279 279 279 279 279 279 279 279 280 280 279 279 279 280 281 281 281 281 282 282 281 280 281 281 282 282 283 283 284 284 284 283 283 282
280 280 280 279 281 280 278 279 280 280 279 279 279 279 278 277 278 281 282 282 282 282 281 281 281 281 281 280 277 276 280 281 281 280 280 280 281 282 283 283 283 284 285 286 281 279 278 277 277 277 278 277 277 277 277 276 276 276 277 277 277 278 278 278 279 279 278 279 279 280 279 279 279 279 279 280 281 281 281 282 282 281 281 281 280
279 278 278 278 278 279 278 278 278 278 279 279 279 279 278 278 277 277 279 281 281 280 280 280 280 280 280 281 281 280 280 280 280 279 279 279 280 281 282 282 282 282 282 278 275 275 274 274 273 273 273 273 273 273 274 273 274 274 275 275 275 276 276 277 278 276 277 278 278 277 277 277 276 277 277 277 277 277 278 278 279 279 279 278 278
277 277 277 277 277 276 276 276 277 276 276 278 280 280 280 279 278 277 276 276 277 278 279 279 279 279 279 280 280 280 279 279 278 278 278 278 279 280 281 279 280 280 277 272 272 272 273 272 271 271 271 271 271 272 273 273 274 274 273 273 272 273 274 276 275 274 275 275 274 274 274 274 274 273 273 274 275 276 275 276 276 276 276 276 276
275 277 278 277 274 275 274 275 274 275 276 276 277 278 278 278 278 277 276 275 275 274 273 273 276 277 274 276 278 279 278 277 277 277 277 277 278 280 278 272 270 270 270 270 270 269 269 269 269 270 270 270 270 271 271 270 270 271 271 271 271 271 272 272 272 271 271 271 271 271 272 271 271 272 272 272 272 272 273 273 273 274 274 274 274
273 273 273 275 274 274 274 275 275 276 276 276 276 276 276 276 275 274 274 274 273 272 272 271 272 276 276 276 278 278 277 276 276 276 276 276 276 277 268 267 267 267 267 267 267 268 268 268 269 269 269 268 267 267 268 268 268 268 270 270 270 270 269 269 269 269 269 269 269 270 269 269 269 270 270 270 271 271 271 271 271 272 273 273 273
273 273 273 273 273 274 274 275 276 277 277 276 276 275 276 276 275 274 273 272 271 270 270 270 270 269 272 271 273 276 277 275 274 274 273 273 273 269 266 265 265 265 265 264 265 265 265 266 267 267 266 265 265 265 265 265 266 267 268 268 268 268 268 268 268 268 267 268 268 268 268 268 268 269 269 268 269 269 269 270 270 271 271 272 272
271 272 272 272 273 274 274 274 274 275 274 275 275 275 275 275 274 273 273 272 272 270 268 268 272 267 265 265 272 270 271 274 271 269 269 268 265 263 264 265 264 263 263 263 263 262 264 264 264 264 264 264 264 264 264 264 265 265 265 265 266 267 268 267 267 267 267 267 267 267 267 267 267 268 268 268 268 268 268 269 269 269 269 270 270
271 274 275 275 274 274 273 273 273 273 273 274 274 274 274 274 274 273 273 272 272 270 268 265 265 265 264 266 264 269 269 266 264 263 262 262 262 262 262 262 262 262 262 262 263 263 262 262 263 263 263 262 263 262 262 262 262 263 263 263 263 263 265 265 265 266 266 267 267 267 267 267 267 267 268 267 267 268 268 268 268 269 268 268 269
271 271 272 273 272 273 272 272 272 272 272 272 272 273 273 273 273 273 273 272 271 270 268 266 264 263 264 264 265 266 265 264 263 262 261 260 260 260 260 260 260 261 260 260 261 261 262 262 262 261 261 260 261 261 261 261 262 262 262 263 263 264 265 265 265 265 265 266 265 266 266 266 266 267 267 267 267 268 267 267 268 268 268 268 269
271 271 271 272 272 272 271 271 271 271 272 272 271 271 271 271 271 271 271 270 270 269 267 265 263 263 265 268 271 269 263 262 262 262 261 260 259 258 259 259 259 260 260 260 260 261 262 262 262 261 261 261 261 261 261 261 261 262 263 264 264 265 265 265 265 265 265 265 265 265 265 265 266 266 265 266 268 267 267 267 267 268 268 268 268
270 270 269 269 270 271 270 270 271 271 271 271 271 270 270 270 269 268 268 268 267 267 266 264 263 263 267 269 269 268 263 262 262 261 260 259 259 259 259 259 259 259 259 259 259 260 260 261 261 260 260 260 260 261 261 261 262 263 264 264 264 265 265 265 265 264 264 264 264 264 265 265 265 265 265 266 266 266 266 266 267 267 267 268 268
269 269 269 269 269 270 270 270 270 270 270 270 269 270 270 269 269 269 268 268 266 265 264 263 262 262 264 268 267 266 262 261 262 260 259 258 258 258 258 257 257 257 257 257 258 258 258 259 260 259 259 259 260 260 261 261 262 262 263 263 264 264 264 264 264 263 263 263 263 264 264 264 264 264 264 265 265 265 265 266 266 266 267 267 267
268 268 268 269 269 269 270 269 269 269 269 269 269 268 268 268 269 269 268 266 265 264 263 262 261 261 261 264 264 262 259 259 258 258 258 258 257 257 256 256 257 257 257 257 257 256 256 257 257 257 257 258 259 260 261 262 263 263 263 263 264 265 264 263 262 262 263 263 263 263 263 263 264 263 264 264 264 264 264 265 265 265 266 266 267
267 267 267 268 268 268 268 269 269 269 269 268 268 268 268 268 268 268 267 266 265 264 264 262 261 260 260 260 260 259 258 258 260 259 257 257 256 256 256 255 256 256 257 257 257 256 256 257 257 257 257 257 259 260 261 262 262 262 263 264 264 264 264 263 261 262 263 263 263 263 263 263 262 263 263 264 264 264 264 264 264 265 265 265 266
266 267 267 267 267 268 268 268 268 268 268 268 267 267 267 267 266 266 266 265 264 263 262 261 260 260 260 259 259 260 258 258 257 257 257 256 256 255 255 255 255 256 256 256 256 256 257 257 256 257 257 257 258 258 259 260 261 262 263 264 265 266 265 264 263 263 263 263 262 262 263 263 263 263 264 264 264 264 263 264 264 265 265 265 266
266 267 267 267 267 267 267 267 267 267 267 267 267 266 265 264 264 264 264 263 262 262 262 262 261 260 260 259 258 258 260 259 259 258 256 255 254 254 254 255 256 256 256 256 256 257 256 257 257 257 257 257 257 258 259 259 260 261 262 263 265 266 265 265 264 264 264 264 263 262 262 262 263 263 263 263 263 263 264 264 264 264 265 265 266
266 266 266 266 266 266 266 266 266 265 265 265 264 264 264 263 262 261 260 260 260 261 262 261 261 261 261 259 259 259 260 260 260 259 257 256 255 255 255 256 256 256 256 256 257 257 257 256 256 256 257 257 258 258 259 259 259 260 260 262 263 265 266 266 264 264 264 263 262 262 262 262 262 262 263 262 262 262 262 263 263 264 264 265 266
265 265 265 265 265 265 265 265 265 264 264 263 263 262 262 260 259 259 259 259 259 259 259 260 260 260 260 259 259 259 259 259 259 259 258 258 257 256 256 256 256 255 256 255 256 256 256 256 257 257 256 256 256 257 258 259 258 259 259 260 263 265 266 266 265 264 264 264 263 262 263 263 262 261 261 261 261 262 262 262 263 263 264 265 265
264 264 264 263 263 263 264 264 264 263 263 263 262 261 260 259 258 257 257 257 257 256 256 256 256 256 257 258 258 258 258 257 257 256 256 256 255 255 255 254 254 255 254 254 255 255 256 256 256 256 257 257 257 257 257 258 258 259 259 261 264 265 266 266 265 265 264 263 263 263 263 263 262 261 260 260 260 261 261 262 263 263 263 263 264
263 263 263 262 262 262 262 262 262 262 262 261 261 260 259 258 256 256 256 255 255 255 255 254 255 255 256 256 257 257 256 255 255 254 253 253 253 253 254 253 254 254 254 254 254 254 255 256 256 256 256 258 258 258 258 258 258 259 262 264 264 265 266 265 264 264 264 264 264 263 263 263 262 261 260 260 261 261 262 262 262 262 262 263 263
Wind_Speed
5 5 6 6 6 6 5 5 5 4 5 4 5 5 4 4 4 5 4 5 4 4 5 5 6 6 6 6 7 7 7 8 7 8 9 10 10 10 10 10 12 12 11 12 11 11 12 13 13 13 11 11 11 10 10 10 10 11 10 10 10 10 9 10 13 16 12 6 8 7 6 5 8 6 9 8 6 7 9 9 9 8 9 9 10
5 5 5 6 7 7 6 5 5 4 4 4 4 5 4 4 4 4 4 5 4 5 5 5 5 5 5 6 6 6 7 7 7 7 9 10 10 8 9 10 12 12 10 12 11 10 11 12 13 12 11 13 12 11 10 10 10 11 11 10 11 10 9 10 12 12 17 7 7 6 7 6 10 6 8 11 10 8 8 7 8 9 9 8 7
6 7 7 7 7 6 5 5 4 4 4 4 4 4 4 4 3 4 4 4 4 4 5 5 5 5 5 6 6 6 7 7 7 7 9 10 10 10 10 10 11 12 12 12 11 10 11 12 12 10 8 11 12 11 10 11 10 11 11 9 10 11 10 11 10 12 14 14 9 9 8 6 10 8 9 10 10 8 10 10 9 7 7 9 8
7 7 6 6 6 5 5 4 4 4 5 4 5 5 4 4 3 3 4 4 4 4 4 4 4 5 5 6 6 6 6 6 7 7 8 9 9 10 9 10 10 11 11 11 10 9 11 11 12 10 9 11 11 10 10 9 9 9 10 9 9 10 9 9 11 11 12 14 12 8 8 7 8 7 8 8 9 9 10 10 7 8 7 7 9
6 6 6 6 5 5 5 5 5 5 5 4 5 5 4 4 3 4 4 4 4 4 4 4 4 5 6 5 5 6 6 6 6 7 7 7 8 9 8 9 9 10 10 10 10 10 10 10 10 8 9 10 10 9 8 9 9 9 9 8 8 8 7 8 10 10 12 14 14 7 6 8 6 6 5 7 8 8 8 10 10 9 9 10 8
6 6 5 6 5 5 5 5 5 5 6 5 5 5 4 4 4 3 3 4 4 4 4 4 4 5 5 5 5 5 5 5 5 6 6 6 7 7 7 8 9 9 9 10 10 10 10 11 10 8 9 11 10 9 8 9 9 9 10 9 8 8 9 10 9 10 12 13 14 13 5 5 5 6 6 7 9 9 8 8 7 8 9 9 7
5 6 5 5 5 5 5 6 6 5 5 5 3 2 1 2 3 4 4 4 4 4 4 4 5 5 6 5 6 5 6 5 5 5 5 5 5 6 7 7 7 8 8 9 9 9 10 10 10 9 10 10 10 9 8 8 9 10 10 10 9 9 9 9 8 10 11 12 12 12 11 7 6 9 5 8 9 8 9 8 10 8 5 8 10
5 5 5 5 5 5 5 5 5 5 4 2 1 1 2 3 3 3 2 3 3 4 4 4 5 4 5 5 5 5 5 5 4 4 4 4 4 5 5 6 7 7 7 7 7 7 7 7 7 8 9 9 9 8 8 9 8 9 9 9 10 11 12 10 9 9 10 10 11 11 7 9 6 5 3 4 6 6 7 9 12 9 8 8 7
5 5 5 5 5 5 4 4 3 3 2 1 2 2 3 2 1 1 1 2 2 3 3 3 4 4 5 5 6 6 5 5 3 4 5 5 5 5 5 4 5 5 6 6 6 7 7 8 8 8 8 9 11 10 10 11 9 9 9 8 10 11 10 10 10 10 9 9 12 10 8 9 8 5 5 6 8 11 7 6 10 9 7 10 7
5 5 5 5 5 4 4 3 3 2 1 2 3 3 3 1 1 1 1 1 2 3 3 4 4 4 4 5 5 6 6 4 5 8 6 4 5 5 5 5 5 5 5 5 5 5 6 6 6 8 10 12 13 15 14 13 12 10 9 7 8 8 7 8 8 8 7 9 10 9 10 12 9 6 8 8 7 7 6 6 9 10 6 8 8
5 6 6 5 5 4 4 4 4 4 4 3 3 4 3 2 2 1 1 2 1 2 2 3 2 3 4 4 4 4 5 5 12 11 11 10 6 5 5 6 6 5 5 5 5 5 5 6 5 7 8 9 10 12 12 11 11 13 14 12 9 8 8 9 9 8 8 10 10 9 10 11 11 5 7 7 5 8 9 8 9 7 7 9 10
7 6 5 5 5 5 5 4 4 5 4 4 4 4 4 3 3 3 3 3 3 2 2 2 3 3 4 4 4 4 2 10 11 12 12 13 11 7 6 5 6 6 5 5 5 4 4 4 4 5 4 5 5 5 7 10 11 12 12 12 13 14 13 11 10 9 7 8 9 10 9 10 10 5 6 4 7 7 7 7 8 8 9 9 8
7 6 6 6 6 5 5 5 5 4 4 4 4 3 2 2 3 3 3 2 2 0 2 3 2 3 3 3 3 2 4 6 7 8 9 10 12 10 6 6 6 5 5 6 6 6 5 5 5 4 5 8 7 6 6 7 10 12 14 14 14 14 15 17 16 13 10 11 10 11 10 6 8 7 4 5 4 7 5 7 7 8 9 10 10
6 6 6 6 5 5 5 4 4 4 3 3 3 2 2 2 1 2 2 1 1 0 0 0 3 2 1 1 1 5 4 5 6 5 5 5 6 6 4 6 5 4 5 5 5 6 6 6 6 6 4 4 4 5 5 5 6 7 8 8 8 10 12 14 16 17 13 10 10 12 11 5 9 7 2 2 3 4 4 6 4 6 7 9 5
6 6 6 5 5 5 5 4 4 4 3 3 2 2 3 1 2 3 3 3 2 1 1 2 1 3 4 3 3 5 4 7 6 6 5 5 5 3 1 3 3 4 5 5 4 4 5 5 4 4 5 5 5 7 5 5 5 5 5 5 5 5 5 5 5 5 6 7 9 10 10 6 7 8 7 6 7 7 6 7 5 4 4 4 4
6 5 5 5 6 5 5 5 4 4 4 3 3 3 3 3 3 3 2 1 3 3 1 3 3 3 3 3 4 4 4 8 7 6 8 8 7 2 1 1 1 2 3 5 6 6 6 6 6 5 5 5 9 12 9 7 5 6 6 5 5 4 3 2 3 4 3 2 2 3 3 3 4 4 4 4 4 5 5 5 3 3 4 5 6
5 6 6 6 6 6 5 5 4 4 4 4 4 4 4 4 4 3 2 1 0 2 5 3 3 3 2 2 4 4 5 7 8 8 9 10 5 3 2 1 1 1 3 3 3 4 5 6 6 6 6 7 11 12 13 11 5 6 5 5 4 3 4 3 5 6 6 6 5 4 5 6 5 4 5 5 3 3 3 4 4 3 4 6 5
6 6 6 5 5 5 5 5 5 4 4 4 4 4 4 3 4 3 3 2 2 3 3 4 3 3 3 3 2 5 5 7 10 10 11 10 5 3 3 2 2 4 3 3 2 3 5 10 8 5 5 6 10 11 13 10 7 7 6 6 6 5 5 7 6 6 7 8 8 8 8 8 8 6 5 6 5 4 2 3 4 4 4 4 5
7 8 6 5 5 4 4 4 4 4 4 4 4 4 4 4 4 2 2 2 4 2 3 5 5 3 4 4 6 6 4 5 8 9 12 12 6 4 5 5 5 5 4 4 3 3 3 7 11 9 6 7 10 10 11 8 5 6 6 6 7 6 7 7 7 8 8 8 7 7 5 6 5 4 5 8 8 5 2 3 3 3 4 4 4
6 5 5 6 5 4 4 4 4 4 4 4 4 4 4 5 5 4 4 4 5 4 4 6 6 5 4 5 5 4 4 4 6 10 11 13 11 6 4 5 5 4 3 3 5 5 5 4 7 11 10 10 9 10 10 10 5 4 4 5 5 5 6 6 6 7 7 6 6 6 6 6 6 6 6 7 7 7 6 5 4 3 3 3 3
7 6 6 6 5 5 4 4 4 4 4 5 5 5 5 5 5 5 5 5 4 5 6 5 6 6 5 5 5 4 4 4 6 11 11 12 11 7 4 4 3 3 4 5 5 4 4 5 4 8 10 9 9 10 9 10 8 5 5 5 5 5 5 4 6 7 5 5 5 5 6 6 6 5 5 5 5 6 6 5 4 3 2 2 2
7 7 7 6 5 5 5 4 4 4 4 5 5 5 5 5 5 5 4 5 6 6 5 5 6 5 5 4 5 5 6 8 5 8 11 11 11 9 5 3 2 2 4 4 4 4 4 4 4 6 9 10 11 11 11 11 10 5 6 8 8 7 3 2 2 3 4 4 5 5 5 5 5 5 5 5 5 6 5 5 5 4 3 3 3
8 7 7 7 6 6 5 5 5 4 4 5 6 6 5 5 4 5 6 5 6 6 6 5 5 6 5 5 4 4 4 5 8 6 9 10 10 9 8 4 5 2 3 3 3 3 2 2 3 4 4 5 9 12 11 8 5 7 9 6 4 5 4 3 3 4 5 5 5 5 5 5 5 5 5 6 5 4 5 5 5 5 5 5 4
7 8 7 7 7 6 6 5 5 4 5 6 5 6 5 5 5 6 6 6 6 6 6 5 5 6 6 5 4 4 4 3 5 7 7 10 11 11 10 10 7 3 3 3 1 1 1 0 1 1 3 6 7 9 10 7 6 9 9 9 7 6 5 5 5 5 4 4 5 5 5 5 5 5 6 5 5 4 4 3 4 4 3 4 5
8 8 7 7 7 6 5 5 4 4 4 6 6 6 5 5 6 4 5 5 6 6 6 5 6 5 5 5 5 4 4 4 5 6 9 10 11 11 11 10 9 5 2 2 1 0 2 2 2 4 5 6 7 7 7 9 9 8 9 9 6 4 5 4 4 4 5 5 5 4 4 5 5 5 6 5 5 5 3 3 4 4 3 4 5
8 8 7 7 7 6 7 5 4 4 4 4 4 4 6 6 6 5 6 6 5 6 6 6 5 5 5 3 4 4 4 5 5 6 6 7 7 10 11 10 8 6 3 1 2 1 2 3 4 4 4 4 4 4 5 5 8 9 9 7 5 6 5 5 5 5 5 4 4 4 4 4 4 5 5 5 5 5 5 5 5 5 4 4 5
9 8 8 7 6 7 8 7 6 5 5 5 5 5 5 6 6 6 5 6 5 6 6 6 5 5 4 3 3 5 5 5 5 5 6 6 6 7 6 7 8 6 3 3 4 2 1 2 3 4 6 8 7 7 6 5 5 6 5 5 5 5 5 5 5 5 4 4 4 4 4 4 4 4 5 5 5 5 5 6 4 5 4 4 2
10 9 9 8 7 7 7 8 8 6 5 5 6 5 5 4 6 5 3 3 7 6 6 5 5 4 4 3 4 5 5 5 5 6 6 6 6 6 5 5 4 4 5 4 3 2 1 3 4 3 4 4 5 4 4 4 5 5 5 4 5 5 6 5 5 4 4 4 3 3 4 4 5 5 5 5 5 5 6 5 5 5 5 3 1
8 9 8 7 7 6 7 7 6 7 7 6 5 4 4 5 5 5 3 2 2 6 7 6 5 4 5 4 4 5 4 4 2 4 4 7 6 6 6 6 4 5 5 6 3 1 2 3 3 4 4 4 4 4 4 4 4 5 5 4 4 4 4 5 5 5 4 4 4 4 4 4 5 4 5 4 5 5 5 5 5 4 5 3 4
9 8 7 7 7 7 7 7 6 6 7 7 7 7 9 9 6 5 4 6 10 10 7 3 3 4 6 3 3 4 4 1 3 5 6 7 8 9 9 10 9 6 6 7 1 1 2 3 4 4 4 4 4 4 4 4 4 4 4 4 5 5 5 4 4 4 4 4 4 4 4 4 4 4 4 4 5 4 5 6 6 5 5 5 5
7 7 7 7 7 7 7 7 7 6 6 7 6 7 6 8 11 11 8 6 8 11 12 12 11 9 7 4 4 7 5 4 4 4 5 6 7 7 8 10 12 10 9 1 2 2 3 4 3 4 4 4 5 5 5 5 5 5 5 5 5 5 5 4 4 4 5 5 4 4 4 5 5 6 6 6 6 6 5 5 5 6 6 7 7
8 7 6 6 7 6 6 6 6 7 6 6 6 7 6 6 5 7 8 8 8 9 10 11 11 11 10 7 4 2 4 4 4 4 5 5 5 5 5 8 11 11 8 3 3 3 3 4 4 4 4 5 4 4 4 4 4 4 4 4 5 5 6 6 6 5 5 5 6 6 7 7 7 7 7 8 8 7 7 7 7 7 7 6 6
6 6 6 6 6 6 5 5 5 6 6 7 6 5 6 6 6 4 4 5 7 7 7 8 9 9 8 8 7 6 5 5 5 6 5 5 4 2 2 8 12 12 9 6 4 4 5 4 4 4 4 4 4 4 4 3 4 4 4 5 5 5 5 5 5 5 5 6 6 7 7 7 7 7 7 7 7 7 7 7 7 7 6 6 6
6 6 6 6 6 5 5 4 5 4 3 3 5 5 5 5 5 6 5 4 3 4 5 7 8 9 8 7 6 6 6 7 7 6 6 5 4 2 4 6 12 15 11 5 5 5 4 4 4 4 4 4 4 4 4 5 5 5 5 4 4 4 5 5 6 7 7 7 6 7 7 7 8 7 7 7 7 7 7 8 7 7 7 6 7
7 7 8 6 5 5 5 5 5 4 3 3 3 3 4 4 5 6 5 4 4 3 3 2 4 6 4 4 5 5 6 6 7 6 7 7 6 2 9 6 5 5 7 6 5 4 4 3 4 4 4 5 5 5 5 5 4 4 4 4 4 5 5 6 7 7 7 7 7 7 7 8 8 7 7 7 7 7 7 7 7 7 7 7 7
7 6 5 6 6 5 5 5 5 5 5 4 4 4 4 4 4 3 4 3 4 5 3 2 3 4 6 5 4 4 5 6 7 9 10 10 7 5 4 5 6 5 5 4 4 4 4 4 4 5 5 5 5 5 5 5 5 4 4 5 5 5 5 6 6 6 6 6 7 7 7 7 7 7 6 6 7 7 7 7 7 7 7 7 7
6 5 5 5 5 5 5 4 4 4 4 4 4 4 4 4 4 3 3 2 2 3 5 4 4 3 4 3 4 3 2 7 10 11 11 11 11 8 4 4 6 5 6 4 4 4 5 4 4 5 4 4 4 4 4 5 5 5 5 5 4 4 5 5 5 6 5 6 6 6 6 6 6 6 6 6 6 6 6 7 7 8 8 9 9
6 5 5 5 4 4 4 4 4 5 4 4 3 3 3 3 3 3 3 2 1 2 4 3 3 3 2 2 4 3 3 6 9 9 9 9 7 5 4 4 4 5 5 5 4 5 5 5 4 5 4 4 4 4 4 4 4 5 5 4 4 5 7 6 7 5 5 4 5 5 5 5 5 5 6 5 6 6 7 7 7 7 7 8 7
6 8 9 7 5 4 4 4 4 4 4 3 3 4 3 3 3 3 3 2 2 3 4 4 4 4 3 3 3 5 2 3 4 4 4 5 5 4 3 3 4 5 5 5 4 5 5 5 5 4 4 4 4 4 4 4 4 4 4 4 5 4 5 5 5 5 5 5 5 6 6 5 5 5 5 5 5 6 6 7 7 6 7 7 7
5 5 5 7 4 4 4 3 4 4 3 4 3 3 3 3 3 3 3 4 3 3 5 5 4 5 3 3 2 2 3 3 3 3 4 3 3 3 3 3 3 3 4 5 5 5 5 4 4 4 4 3 4 3 3 3 4 3 4 4 4 4 5 5 5 6 6 6 6 6 6 6 6 5 4 4 4 5 6 6 6 6 6 6 7
5 5 4 5 5 4 4 4 3 4 3 3 3 4 3 3 3 3 3 3 4 4 5 5 5 4 3 3 4 5 5 4 4 4 4 3 3 3 4 3 3 3 3 4 4 4 4 4 4 4 4 4 3 3 3 3 3 4 4 4 4 4 4 5 6 6 6 6 6 5 5 6 6 6 6 5 6 6 5 5 5 6 7 6 7
5 4 4 3 4 4 4 3 3 4 4 3 4 4 4 4 3 2 3 3 6 6 6 5 5 3 4 4 4 9 6 5 5 5 4 3 3 2 3 3 4 3 3 4 4 3 3 4 4 4 3 3 3 2 2 3 3 3 3 3 4 4 4 5 5 5 6 5 6 5 6 6 6 6 7 7 5 6 6 5 5 6 6 6 7
5 4 4 3 3 3 4 4 4 4 4 4 3 3 4 4 4 4 4 5 5 6 6 6 5 3 3 4 6 8 5 5 5 4 4 3 3 3 2 2 2 2 3 3 3 3 3 3 4 3 2 2 2 2 2 3 3 3 3 3 3 4 4 4 4 4 4 5 5 5 6 5 6 5 6 6 6 6 5 6 6 6 6 6 6
4 4 3 3 3 3 3 4 4 3 3 4 4 4 4 4 4 4 5 5 5 5 6 6 5 4 3 5 5 6 5 5 5 5 4 4 3 3 2 2 3 3 4 4 3 3 3 3 3 3 3 3 3 3 3 3 3 3 3 4 3 4 5 5 4 3 3 3 4 4 4 5 5 5 6 7 6 6 6 7 7 6 6 6 6
4 4 4 3 3 3 3 3 3 4 4 4 4 4 3 4 4 4 4 5 5 5 5 5 4 4 5 4 5 5 5 5 5 5 4 4 3 3 3 3 3 3 3 3 3 3 3 3 3 3 4 4 5 4 4 4 3 3 3 3 3 3 4 3 2 1 1 2 3 4 5 5 5 5 5 6 6 6 6 6 6 7 7 6 6
4 4 3 3 3 2 3 4 3 3 3 4 4 4 4 4 4 4 5 5 5 5 5 4 4 4 5 5 4 6 5 5 5 4 5 3 4 3 3 2 2 2 3 2 2 2 3 3 3 4 3 3 4 4 5 4 4 4 3 3 3 4 3 2 1 1 1 2 3 2 3 3 4 4 6 5 5 5 5 6 6 6 7 7 8
4 4 3 3 4 3 3 3 3 3 3 4 4 4 4 4 4 5 5 6 5 5 5 4 4 5 4 4 4 4 5 5 5 4 4 4 3 3 2 1 1 2 2 2 2 2 2 3 2 2 2 2 3 3 4 4 4 4 3 4 4 3 3 2 2 2 2 2 2 2 2 2 3 3 5 5 5 5 6 6 6 7 7 7 8
3 3 3 3 4 4 4 4 4 4 4 4 5 5 5 5 5 5 5 4 4 5 4 4 5 4 4 4 4 4 4 4 4 5 4 3 3 3 2 2 1 1 1 2 2 1 1 2 2 2 2 2 3 3 3 4 4 4 4 4 4 4 5 4 2 3 2 3 3 2 2 3 3 2 4 5 5 6 6 6 6 6 7 7 7
4 4 4 4 4 4 4 4 3 4 4 4 5 5 5 5 4 4 3 4 4 4 4 4 4 4 4 4 4 4 5 5 4 3 3 3 3 2 2 2 2 2 2 2 2 2 2 2 2 2 3 3 3 3 2 3 3 4 3 3 5 9 8 6 3 3 4 3 3 3 3 3 2 1 2 3 4 5 5 6 6 7 7 7 7
4 4 5 5 4 4 3 3 4 4 4 4 5 5 5 5 5 4 4 5 5 4 4 4 4 4 4 4 5 4 4 4 4 4 4 3 2 2 2 2 2 3 2 2 2 3 3 3 2 2 3 3 3 3 3 3 3 4 3 3 7 8 8 6 5 6 4 3 3 3 4 4 2 1 1 2 3 4 5 6 6 7 7 7 7
4 5 5 5 4 4 4 3 4 4 5 4 4 5 5 5 5 4 5 5 5 4 5 4 4 4 4 4 5 4 5 4 4 3 3 3 2 1 1 1 1 1 2 2 2 2 2 3 2 2 2 2 2 2 2 2 2 3 4 6 7 8 6 6 4 5 7 5 3 3 4 4 3 2 2 2 2 3 6 7 7 6 6 6 7
Wind_Direction
142 149 143 146 150 167 181 185 196 198 201 205 212 225 230 227 230 231 241 247 241 245 243 244 244 240 239 235 232 232 228 230 221 222 225 230 229 230 229 224 231 235 234 236 233 232 230 231 230 227 221 224 227 226 228 228 227 231 232 234 237 233 231 241 255 266 269 222 255 246 242 246 255 234 256 249 243 244 238 237 237 236 235 233 236
165 162 159 161 166 180 187 186 189 187 195 210 213 224 227 226 226 241 239 248 240 245 246 248 245 243 242 241 238 235 233 230 225 220 226 230 233 229 230 228 232 236 233 238 234 233 235 236 236 232 226 230 232 228 226 224 227 229 232 229 235 236 221 236 248 258 271 256 242 251 246 226 252 223 239 255 254 249 246 246 242 236 238 240 244
169 161 161 166 177 177 175 179 176 190 199 220 227 233 240 240 242 244 253 262 262 253 254 255 254 251 248 244 241 240 236 235 228 222 226 227 230 229 228 228 231 235 236 239 237 233 235 236 237 230 225 231 232 234 230 230 229 232 235 230 236 236 228 227 240 253 262 269 248 248 242 224 237 237 234 244 252 256 262 251 243 242 236 238 241
158 157 163 171 171 160 165 174 173 192 198 215 220 233 233 240 244 252 257 262 264 264 263 264 266 261 256 254 248 246 245 240 236 228 228 226 229 231 228 229 231 235 237 240 238 233 236 238 239 233 226 231 232 232 233 234 235 237 240 237 235 239 235 229 230 242 256 266 261 229 246 233 244 244 242 243 245 245 248 261 254 247 241 231 235
153 163 162 163 160 159 174 173 180 195 206 210 218 220 224 229 240 240 251 259 259 266 272 271 275 275 270 265 260 255 248 244 243 240 235 229 229 230 229 228 232 235 238 240 239 237 239 239 241 231 228 234 234 232 232 236 237 237 240 236 235 238 236 232 234 236 247 254 267 246 228 240 240 247 227 241 251 248 254 255 259 257 253 245 242
158 158 159 159 168 168 181 186 192 201 203 206 210 213 216 222 234 254 247 261 275 278 275 280 270 271 270 273 273 271 268 258 251 247 244 240 236 233 229 228 232 234 235 236 238 238 242 244 241 231 229 233 236 234 228 231 232 235 238 237 234 233 236 235 234 235 241 251 256 268 233 241 258 236 219 227 248 255 255 257 264 256 256 265 250
158 157 162 165 172 184 189 196 198 200 198 198 191 182 218 248 258 256 260 256 267 275 283 282 282 278 278 280 278 280 281 279 274 273 268 262 252 244 241 239 237 236 237 237 235 235 239 244 244 235 230 229 234 232 226 226 225 232 232 232 238 241 244 247 242 242 245 253 259 255 262 249 237 263 224 221 238 237 251 265 259 250 249 245 255
158 161 162 179 187 204 206 202 202 202 180 150 155 208 226 240 239 250 265 280 276 277 282 285 285 294 290 292 291 297 298 302 300 294 296 299 294 278 265 253 247 241 240 237 234 235 235 237 241 242 238 235 234 235 223 225 217 227 230 228 233 236 239 242 241 242 246 250 257 269 258 266 249 242 249 217 243 254 233 242 259 260 254 254 233
163 170 175 187 207 209 209 208 187 159 151 181 205 218 221 221 221 269 314 295 304 300 318 329 338 330 329 325 323 319 313 301 315 358 351 345 340 328 321 314 306 282 262 249 239 238 241 240 234 228 228 242 242 236 227 220 222 234 237 225 229 233 236 236 237 236 241 245 254 256 265 265 257 248 246 226 226 240 235 222 252 258 253 266 260
167 179 187 205 211 206 199 183 165 165 196 224 238 246 244 237 241 290 293 304 320 340 357 357 347 334 330 332 333 330 322 326 17 8 16 7 333 329 324 315 315 314 316 306 290 271 250 244 250 249 243 233 230 231 235 241 241 240 242 223 225 238 245 253 250 245 247 253 256 259 258 258 258 230 240 233 228 244 257 238 247 255 253 260 263
173 179 199 204 200 194 177 180 174 192 206 202 220 221 226 229 220 230 262 274 316 337 340 328 314 315 322 320 321 319 317 320 342 346 339 341 332 317 315 311 308 304 303 300 298 305 305 297 283 258 242 246 252 245 241 235 238 245 250 245 234 226 233 240 245 243 240 245 254 253 253 263 262 235 233 244 221 226 231 234 244 258 255 259 270
177 188 192 194 196 191 190 189 190 204 189 205 204 207 195 182 197 214 215 216 213 204 226 244 252 254 259 253 263 265 277 20 14 3 353 347 340 323 299 291 294 299 305 306 304 307 307 311 307 308 302 292 295 283 263 259 259 263 266 263 256 254 249 246 255 253 240 247 255 253 255 255 272 251 244 238 243 238 235 233 237 239 249 248 254
176 183 193 190 199 194 190 190 196 198 206 205 195 164 169 191 209 209 201 154 91 161 234 229 239 258 255 255 254 291 62 19 32 17 9 356 352 343 313 293 281 271 274 281 290 296 301 299 295 292 292 301 295 284 275 269 256 253 254 255 256 254 254 254 247 245 261 262 263 267 256 262 269 264 215 238 220 239 234 233 236 236 238 249 248
176 189 191 194 193 190 186 183 198 211 214 199 171 180 181 213 204 130 108 99 159 186 310 319 257 255 279 321 318 70 48 18 21 25 15 11 348 345 296 298 291 287 278 273 273 274 272 275 279 281 287 288 289 294 289 274 269 262 258 251 250 252 251 248 254 255 247 245 254 262 268 260 261 280 275 331 322 269 262 255 259 256 257 253 270
185 189 191 194 181 179 176 179 190 208 197 177 178 192 206 184 86 67 66 49 11 292 264 273 2 41 45 10 70 79 42 11 19 8 10 359 343 325 313 310 317 314 309 306 315 331 351 347 343 332 333 324 353 353 329 320 314 299 290 279 265 259 259 267 258 247 243 229 236 248 267 280 278 283 287 285 270 268 261 262 255 241 265 289 311
189 183 186 186 179 178 173 175 176 180 180 182 178 198 167 127 105 90 96 225 232 246 233 89 60 59 38 32 80 86 30 21 16 17 13 2 341 314 344 21 347 346 353 11 16 18 14 10 1 2 2 17 6 3 4 346 318 302 295 289 293 301 327 13 24 32 24 349 315 304 304 322 332 319 324 315 313 324 334 324 334 320 303 285 276
193 188 185 183 179 174 163 160 168 173 176 170 181 162 133 121 126 128 176 196 251 105 107 106 99 105 82 65 90 88 44 14 18 25 19 8 359 329 328 340 344 56 71 75 69 60 45 28 23 21 22 23 5 7 2 1 342 336 323 314 307 320 308 346 18 30 29 24 5 359 350 346 346 343 347 3 8 354 342 330 295 282 282 282 274
194 187 189 181 168 159 155 155 165 175 170 176 162 140 126 127 131 137 148 167 117 103 102 118 114 97 95 74 86 85 50 17 26 27 22 15 2 346 332 337 348 56 62 47 52 76 76 66 56 51 42 27 18 24 19 10 360 347 347 336 337 339 346 357 349 353 3 360 358 360 350 342 337 336 342 344 352 17 3 301 296 342 302 275 285
189 186 181 162 150 147 153 153 163 166 171 162 145 144 142 143 125 150 176 138 130 146 147 130 118 106 82 69 72 86 65 24 23 31 33 33 24 8 20 32 47 29 26 18 5 65 64 66 52 42 36 21 23 26 30 34 29 8 350 349 345 0 11 348 357 352 350 350 348 347 343 340 331 331 327 338 348 351 320 276 301 302 284 291 294
179 158 144 139 137 144 144 152 164 160 160 145 138 137 131 143 168 165 172 164 172 171 144 116 117 105 92 79 80 91 87 41 24 31 40 45 45 39 35 45 43 15 351 22 50 43 46 53 40 24 20 21 24 27 28 32 30 15 32 43 22 2 345 352 347 349 340 340 328 327 326 337 352 12 18 22 18 17 15 5 356 335 308 286 277
147 146 140 138 145 152 154 159 162 165 157 154 145 142 155 162 163 169 170 179 157 131 121 122 113 120 118 108 97 79 73 54 25 31 38 45 47 49 46 41 16 350 352 40 46 42 34 42 36 18 24 30 36 38 42 45 46 45 42 44 28 356 356 354 342 339 331 331 334 351 10 16 12 16 23 12 5 357 348 346 358 357 338 313 302
144 146 147 146 148 150 148 151 150 159 154 144 145 151 160 168 174 176 161 142 131 131 131 124 120 118 125 127 114 98 74 64 40 21 26 34 43 46 48 27 19 26 43 59 52 40 36 23 17 9 35 48 50 50 55 57 57 69 48 47 38 25 350 313 313 337 348 358 9 18 16 18 9 360 360 356 350 344 338 331 323 319 309 279 275
149 148 143 142 144 145 147 152 157 157 159 153 146 152 165 166 166 142 136 131 128 130 135 137 132 131 117 98 95 99 91 72 51 33 16 23 31 36 40 34 17 37 91 81 73 62 56 26 351 8 36 41 61 61 60 56 51 55 54 39 19 347 1 8 9 14 22 24 24 16 9 5 4 352 348 344 335 339 335 327 322 321 315 303 269
146 140 140 140 139 142 148 150 149 144 142 135 137 141 144 144 135 139 143 136 134 128 133 137 131 132 129 121 113 102 92 85 52 36 21 13 19 24 27 29 34 23 62 85 54 84 75 335 299 47 66 79 76 68 61 57 50 45 44 44 42 42 43 41 34 33 36 36 29 17 4 352 350 347 340 328 318 312 301 302 313 309 297 297 296
137 138 140 142 140 143 133 134 136 133 136 134 133 137 136 130 124 134 127 122 117 116 123 119 127 135 127 127 122 106 90 70 51 27 16 7 3 6 9 16 24 30 44 17 45 263 203 193 150 108 89 83 81 74 62 51 46 42 44 40 41 44 49 55 52 40 40 30 19 5 356 349 342 325 318 318 317 321 322 322 321 318 315 312 304
138 141 141 139 141 136 129 127 124 122 116 112 119 126 133 130 125 116 106 111 121 126 125 115 113 112 114 113 109 101 73 61 38 19 11 3 353 350 351 351 357 3 56 32 19 60 106 133 128 119 93 85 80 76 72 64 51 45 42 40 36 35 32 37 35 42 33 16 5 359 341 329 333 327 318 322 333 328 332 330 334 327 334 327 341
139 141 142 141 141 142 139 139 132 123 110 99 90 91 96 107 109 105 120 130 126 123 116 119 114 108 102 82 78 85 71 59 35 18 6 3 350 341 341 341 341 350 0 353 348 336 13 86 95 89 89 81 75 71 71 59 50 41 39 39 42 41 39 35 31 28 18 7 352 345 335 332 324 336 347 345 338 333 334 326 327 324 328 321 310
147 147 146 146 149 149 143 140 132 122 114 111 105 95 79 93 100 99 107 131 135 125 118 111 108 107 99 76 66 71 70 62 40 19 4 359 346 332 326 327 331 321 329 326 320 301 32 55 57 66 72 68 59 53 50 51 54 51 43 41 40 42 40 35 36 34 21 8 344 340 332 351 351 358 346 345 341 334 331 334 332 333 329 318 334
139 142 144 140 141 141 137 135 131 125 113 94 76 76 110 108 107 97 48 38 94 129 124 108 108 115 104 99 91 79 72 66 47 21 4 354 346 335 328 319 308 310 294 301 303 332 63 48 44 39 47 58 57 57 49 43 45 40 39 34 43 41 38 31 28 16 8 5 359 351 350 359 354 356 344 340 341 335 326 329 324 335 324 341 10
139 144 144 141 142 135 133 133 134 129 126 123 111 80 58 77 100 102 88 60 67 69 85 108 119 110 106 98 113 125 140 144 48 31 12 3 354 342 335 331 330 314 309 306 270 73 75 79 54 52 50 50 49 49 40 35 39 30 30 25 38 41 35 25 19 1 1 360 347 349 359 3 353 350 343 341 331 340 338 338 329 326 336 355 1
141 142 142 148 148 143 140 138 141 133 132 128 119 114 105 69 81 90 90 79 83 86 88 87 84 83 105 120 113 117 104 82 70 49 31 14 5 351 343 342 337 332 324 319 35 60 67 73 59 56 57 60 59 49 41 38 33 25 22 27 31 29 19 14 10 357 5 357 345 359 9 9 359 350 348 342 344 339 340 335 339 349 2 7 11
145 146 140 139 136 135 137 137 134 135 137 135 132 133 121 117 93 79 84 91 91 91 89 89 89 88 90 99 102 67 79 80 70 55 39 26 13 359 1 5 356 344 342 41 73 51 53 74 64 48 48 55 48 46 43 43 36 30 22 22 18 15 14 14 12 13 18 8 17 23 20 17 13 5 1 358 356 353 355 359 8 7 6 9 9
131 129 126 123 118 123 125 128 131 133 143 145 149 142 139 141 134 130 101 89 94 99 96 95 92 89 87 87 95 102 93 80 64 56 33 21 9 352 78 51 36 17 25 35 58 55 44 47 50 48 53 60 49 51 43 36 31 25 31 32 19 17 8 359 7 15 12 21 31 27 22 19 12 5 1 358 357 354 355 358 357 360 359 0 0
121 128 135 131 124 122 122 124 123 128 126 135 144 145 149 148 146 141 137 130 103 83 92 98 97 89 83 84 87 92 90 81 66 49 31 359 2 304 179 93 62 48 57 56 41 48 44 52 43 39 38 46 40 36 41 35 33 33 31 25 14 6 356 8 19 16 19 28 31 25 21 20 12 7 2 357 357 355 356 353 354 354 357 357 353
103 102 105 108 113 115 109 101 105 104 96 90 86 97 93 98 128 146 154 152 157 156 134 104 96 99 86 72 90 93 85 70 60 49 34 19 347 69 86 70 59 41 50 53 63 60 58 51 49 38 39 38 29 28 36 34 28 29 24 9 11 17 14 26 22 21 23 25 30 26 23 21 15 12 4 357 356 0 357 356 355 352 352 353 350
102 104 100 104 104 104 102 102 97 101 104 94 86 80 81 85 93 109 126 145 159 157 147 142 118 98 85 69 82 96 85 72 62 50 42 35 24 69 85 97 91 87 82 68 75 72 73 62 58 54 47 43 33 30 29 29 20 15 17 20 31 25 28 33 30 24 25 30 33 29 28 25 20 11 6 1 8 5 0 357 353 348 352 350 354
105 105 103 99 103 103 101 94 91 91 92 92 90 87 81 80 78 83 94 103 97 123 134 127 100 90 70 34 26 31 71 87 68 57 47 44 44 55 88 105 112 104 90 83 84 84 75 62 63 65 54 51 39 34 30 26 21 15 24 25 25 31 34 39 35 30 25 28 31 30 28 25 15 15 11 7 7 8 357 357 352 352 353 354 355
91 97 95 89 87 93 93 84 81 88 87 90 88 93 97 89 89 94 97 88 101 108 115 130 126 124 96 3 10 31 303 92 67 47 33 29 26 28 50 83 91 97 98 90 85 89 83 74 64 64 55 51 48 41 39 35 29 22 20 13 18 26 46 38 37 31 29 24 24 22 20 19 16 12 10 11 4 360 355 353 350 347 349 352 354
81 85 91 93 96 94 98 98 97 101 98 92 93 101 103 105 103 95 94 95 91 92 101 89 80 77 45 24 9 318 352 47 48 60 44 33 22 19 32 57 80 87 85 79 75 80 84 74 63 64 58 52 48 45 50 45 39 33 22 21 13 9 21 20 29 23 25 25 23 18 17 13 6 7 358 4 357 359 349 349 345 347 342 343 344
96 91 87 91 82 89 97 103 106 99 99 102 96 98 94 105 115 115 115 124 126 115 109 99 84 58 36 28 328 331 74 83 84 87 75 43 34 21 30 44 56 74 79 75 73 77 81 80 77 67 64 51 51 48 50 53 46 43 39 39 30 26 21 19 18 22 21 21 20 15 11 4 353 353 350 356 357 354 345 341 340 342 340 336 335
97 96 93 90 104 102 92 94 95 98 100 106 107 109 110 105 101 106 103 117 116 99 94 95 89 62 44 22 9 64 97 93 88 76 75 68 52 43 35 38 43 50 54 63 70 75 82 87 86 77 71 64 49 55 50 56 49 56 58 48 48 45 32 26 27 23 18 14 10 8 5 359 354 356 355 354 355 349 339 336 334 337 336 335 335
104 106 99 95 95 109 112 108 102 99 100 104 99 117 120 116 110 109 124 119 114 113 110 103 94 75 61 68 68 79 80 85 87 81 71 71 63 54 54 44 44 49 57 59 58 63 76 79 85 83 75 68 52 38 50 52 53 57 65 64 65 61 53 47 36 23 13 5 356 1 2 359 360 0 350 349 344 343 338 338 339 335 333 338 336
94 103 107 111 110 110 119 116 112 114 117 117 112 100 103 106 107 110 110 113 119 122 122 117 111 94 85 86 88 86 80 81 87 85 86 76 72 60 51 47 48 56 61 52 40 48 68 86 84 87 80 81 74 43 44 48 39 39 51 43 54 66 68 57 45 28 15 4 354 359 356 354 355 353 344 347 343 336 336 337 336 334 335 331 328
85 93 94 98 94 84 90 103 115 128 126 109 101 102 101 104 102 100 104 102 101 108 114 123 125 118 98 80 83 87 92 92 94 93 87 83 78 79 63 45 32 45 52 46 21 25 46 67 75 53 44 52 37 18 38 41 41 40 40 33 28 52 62 54 41 23 8 358 356 357 356 356 351 344 345 345 342 342 341 342 339 334 331 325 318
88 89 94 94 91 89 94 88 90 95 100 102 103 100 101 104 109 109 104 101 99 98 106 114 118 118 113 106 102 101 102 102 99 96 97 96 93 87 74 49 45 55 53 46 36 32 33 40 56 53 39 24 25 17 12 9 15 39 41 53 37 56 70 65 61 15 332 5 4 6 358 355 351 347 341 340 344 339 334 328 325 324 320 315 316
96 102 103 113 117 115 102 99 94 102 113 119 118 111 96 87 86 89 98 103 109 112 112 111 114 113 112 110 106 106 109 105 98 94 88 82 83 75 69 52 55 80 85 66 55 47 47 50 48 44 41 28 18 3 358 4 8 15 24 40 38 71 79 87 63 12 8 36 17 4 344 349 345 345 342 339 328 326 318 317 317 314 314 314 315
100 107 114 113 116 112 105 105 109 117 101 97 100 100 93 91 85 82 87 107 111 118 118 122 112 110 104 111 115 115 109 109 113 108 109 105 100 89 72 57 50 61 75 79 75 62 60 60 52 44 30 23 20 15 8 3 3 359 5 21 27 32 38 52 38 29 35 15 10 334 334 338 336 336 338 338 329 324 323 321 321 321 319 315 311
95 97 95 95 91 95 98 94 92 85 82 89 94 99 102 99 97 97 94 97 103 105 110 93 93 110 112 108 102 101 104 108 109 108 105 102 107 93 77 64 38 29 77 78 85 58 63 77 53 45 38 29 30 18 5 357 357 356 10 16 12 357 359 17 49 38 22 15 343 330 323 317 313 333 349 347 340 334 329 323 322 312 307 304 308
92 94 93 92 101 104 102 106 107 108 105 101 100 96 96 98 103 103 106 105 105 103 106 116 111 103 99 101 95 91 92 89 92 94 95 82 71 67 56 28 15 12 47 40 51 43 35 47 32 26 41 17 27 14 359 360 356 353 357 5 347 346 349 11 51 34 12 355 327 321 308 299 298 342 360 344 329 326 317 311 305 308 311 312 312
82 84 80 73 59 63 75 86 91 96 109 110 109 107 104 107 107 109 106 100 92 87 84 90 97 103 101 97 96 96 95 97 97 95 87 79 72 57 46 31 23 16 22 22 17 25 17 23 26 33 19 15 8 360 355 350 344 338 329 334 332 331 327 10 40 20 10 332 331 317 306 298 286 286 331 316 315 315 312 312 313 314 311 309 309
79 82 84 82 77 68 61 68 78 70 61 84 102 106 107 103 104 99 100 104 108 106 100 98 95 94 89 91 94 93 96 99 104 102 104 97 90 78 72 59 18 12 349 40 16 7 4 8 11 20 11 10 357 353 342 333 321 313 321 328 325 313 328 12 15 4 356 344 317 312 302 298 286 272 281 296 308 311 322 324 319 313 312 313 314